NWS Melbourne » East Central Florida Hourly Weather Roundup

MIARWRMLB 000
TTAA00 KMLB 282211
HOURLY WEATHER ROUNDUP AROUND FLORIDA
NATIONAL WEATHER SERVICE OFFICE MELBOURNE FL
500 PM EST FRI NOV 28 2014
  
CITY           SKY/WX    TMP DP  RH WIND       PRES   REMARKS
MELBOURNE      CLEAR     60  46  59 N15       30.23S                  
FORT PIERCE    PTCLDY    61  49  64 N12G18    30.21R                  
ORLANDO INTL   CLEAR     58  41  53 N14       30.26R                  
DAYTONA BEACH  PTCLDY    56  42  59 N12       30.28S                  
VERO BEACH     CLEAR     59  49  69 N13G20    30.22R                  
$$
...ELSEWHERE ACROSS CENTRAL FLORIDA...
  
CITY           SKY/WX    TMP DP  RH WIND       PRES   REMARKS
PATRICK AFB    CLEAR     59  47  63 NW15G21   30.24R                  
JFK SPACE CTR  CLEAR     59  46  63 N12G18    30.25S                  
CAPE CANAVERAL CLEAR     61  46  59 N14G23    30.23S                  
TITUSVILLE     CLEAR     57  45  62 N23       30.25S                  
ORLANDO EXEC   CLEAR     58  41  53 NE10      30.26S                  
LEESBURG       CLEAR     57  40  52 N12       30.28R                  
SANFORD        CLEAR     56  41  57 N13       30.27S                  
WINTER HAVEN   CLEAR     60  37  42 N7        30.26R                  
KISSIMMEE      CLEAR     59  43  55 NE9       30.26R                  
OKEECHOBEE     CLEAR     61  45  55 N8        30.23R                  
TAMPA          CLEAR     60  31  33 N8        30.26R                  
$$
...NORTHERN FLORIDA...
  
CITY           SKY/WX    TMP DP  RH WIND       PRES   REMARKS
DELAND         CLEAR    N/A N/A N/A N8        30.29S                  
NEW SMYRNA BCH CLEAR     57  43  58 N14       30.27F                  
ORMOND BEACH   PTCLDY    54  41  62 N12G17    30.28F                  
ST AUGUSTINE   CLEAR     52  40  63 N9        30.30F                  
GAINESVILLE    CLEAR     53  31  42 NE6       30.28F                  
JACKSONVILLE   PTCLDY    49  36  61 NE8       30.31R                  
TALLAHASSEE    CLEAR     57  26  30 N5        30.31R                  
$$
...ALONG THE SOUTHEAST COAST TO THE KEYS...
  
CITY           SKY/WX    TMP DP  RH WIND       PRES   REMARKS
STUART         PTCLDY    61  50  67 N14G21    30.21S                  
WEST PALM BCH  MOCLDY    66  52  60 N13       30.17S                  
MIAMI          PTCLDY    69  50  50 N8        30.17R                  
KEY WEST       CLEAR     67  48  50 N12       30.17S                  
$$
...MARINE REPORTS...
  
STATION/POSITION TIME  TEMP    WIND        PRES    WAVE   SWELL
                       AIR SEA DIR/SP/G            HT/PER HT/PER/DIR
                 (UTC) (F)     (DEG/KT/KT) (MB)    (FT/S) (FT/S/D)
ST AUGUSTINE FP  2200   52      10/ 12/ 15 1026.2F
20NM E CAPE CANA 2200   63 76  350/ 19/ 23 1022.8F   6/ 8   2/ 60/14
120 E NEW SMYRNA 2200   65 77  360/ 14/ 19 1022.5R   6/ 8   5/ 8
TRIDENT PIER     2200   59 68  340/  9/ 14 1023.4F
SEBASTIAN INLET  2200   60     350/ 21     1024.0R
4NM E PORT CANAV 2200      67                N/A     3/ 9
6NM NE FPR INLET 2200      74                N/A     5/ 5
SETTLEMENT PT GB 2200   67      10/ 14/ 18 1022.1R
$$
  
 


USA.gov is the U.S. government's official web portal to all federal, state and local government web resources and services.